Wind_Speed
33 33 30 25 21 20 26 24 33 37 38 34 31 28 27 25 23 22 20 18 15 11 9 8 5 5 4 5 7 10 13 15 16
35 33 29 27 21 17 22 26 31 40 40 38 34 30 30 27 25 22 21 19 15 13 11 9 8 7 6 5 8 10 12 15 17
42 38 34 29 21 21 23 28 31 42 45 43 37 34 31 29 26 24 22 19 16 13 12 11 9 8 5 6 10 14 16 17 19
47 43 37 31 27 24 24 29 32 44 48 45 41 37 33 30 28 25 22 18 15 14 13 13 11 12 11 11 14 17 21 24 23
51 47 42 37 32 26 25 28 34 43 49 46 44 39 36 35 30 26 23 20 18 18 18 18 16 16 18 18 20 22 25 27 29
52 54 49 43 36 30 28 27 33 41 48 46 43 40 39 36 32 28 27 26 24 23 22 21 21 22 23 24 27 28 30 33 35
54 58 54 47 42 35 33 31 32 39 41 42 41 40 39 36 33 32 33 31 28 26 26 25 26 26 27 29 31 32 34 36 37
54 59 57 52 46 41 36 37 38 39 40 41 40 40 39 37 35 34 33 31 29 28 27 27 28 29 30 31 33 35 36 39 42
55 59 58 55 53 49 45 42 43 42 42 41 40 41 42 38 36 35 35 34 34 33 31 33 32 32 32 33 34 36 39 43 46
53 60 62 61 57 53 47 43 42 43 42 41 42 42 42 40 39 40 39 37 37 38 36 36 34 33 34 34 36 40 43 47 47
53 58 60 61 58 54 51 48 45 42 44 42 42 42 41 40 37 35 34 34 37 38 38 36 34 34 36 38 41 44 46 42 28
44 49 54 58 55 51 51 49 47 44 42 42 43 44 42 38 36 35 34 36 37 37 39 36 35 38 41 43 45 46 39 28 27
39 34 37 44 52 56 55 53 51 50 49 48 47 46 44 40 38 37 37 39 37 38 38 38 41 42 45 47 47 37 29 25 24
39 32 32 35 47 55 57 58 57 55 52 52 53 49 44 41 40 42 43 41 41 42 42 43 45 46 44 40 34 33 27 25 27
41 37 36 35 35 41 51 57 58 58 56 55 53 49 48 47 48 47 45 45 46 47 45 46 39 38 36 35 31 30 30 30 34
54 49 45 42 38 35 34 37 46 54 60 61 58 55 54 54 54 52 51 51 50 46 38 34 34 36 37 35 34 33 34 36 39
61 59 57 53 46 43 40 37 35 39 42 43 49 52 54 56 55 53 48 41 38 35 35 37 37 39 38 36 37 38 39 42 44
63 69 62 57 53 51 47 45 47 47 42 41 41 40 40 41 42 41 39 37 37 39 39 41 41 39 38 38 40 41 44 46 48
72 79 66 62 60 58 56 53 55 55 52 51 48 47 47 47 46 45 43 41 41 44 45 45 43 43 42 43 44 44 46 48 49
76 72 73 69 66 64 60 57 57 58 57 56 56 54 53 53 52 47 47 46 45 47 48 49 46 46 47 47 48 51 51 51 51
Wind_Direction
211 223 230 234 232 217 205 200 219 215 199 196 197 196 194 189 187 183 183 187 189 194 211 223 216 232 262 303 328 336 334 330 323
218 222 230 231 236 231 217 209 215 218 203 194 197 202 201 196 194 191 193 199 201 213 227 240 256 267 287 319 335 335 335 333 327
221 218 226 230 231 230 227 211 213 215 202 198 197 202 204 202 199 202 207 213 220 232 241 247 253 265 262 302 320 321 321 320 322
221 216 222 229 230 226 227 211 211 214 204 201 201 205 208 208 209 211 217 220 229 244 251 247 242 246 256 273 293 309 315 319 319
217 219 217 224 226 225 222 212 209 211 208 204 204 206 209 213 216 219 225 229 238 243 247 257 257 250 263 276 288 297 305 312 313
217 217 217 217 221 223 216 213 209 212 213 209 210 210 214 218 220 224 229 232 240 241 246 253 264 264 268 273 281 289 300 309 312
220 214 215 216 217 218 214 212 209 212 217 218 217 219 220 222 225 228 232 234 240 242 246 253 259 264 271 276 283 293 302 307 308
222 218 213 214 218 218 218 210 211 215 222 222 223 225 226 227 229 234 239 241 245 250 255 259 262 267 274 281 289 297 300 302 304
220 223 215 215 216 217 218 217 211 212 215 225 228 231 231 232 235 239 242 244 247 251 254 259 265 271 277 286 291 294 297 300 301
219 221 219 213 216 219 219 224 223 220 222 221 225 231 236 237 238 240 242 245 249 251 254 260 266 275 282 285 290 293 296 301 306
222 223 222 220 216 220 221 224 230 229 229 229 229 231 233 236 239 243 245 246 247 252 259 263 270 276 279 284 289 294 299 303 303
229 226 224 223 219 219 222 224 228 232 235 238 240 239 238 237 239 239 242 245 249 255 261 268 273 277 282 287 291 295 297 298 300
227 224 221 222 222 220 220 222 226 227 229 230 234 237 239 242 245 247 248 250 255 259 265 272 275 278 283 287 289 290 287 292 296
228 220 214 217 220 221 222 224 227 231 231 234 235 239 242 243 247 250 250 254 257 262 266 269 273 279 280 278 281 280 283 292 296
223 220 223 226 225 222 221 223 226 230 233 237 240 242 243 245 245 248 252 255 257 261 266 274 271 268 264 267 271 277 283 290 294
216 215 217 223 225 226 222 223 224 228 233 235 237 239 242 244 247 249 250 253 259 261 258 254 253 254 258 261 267 277 283 288 294
229 222 216 220 225 231 232 230 232 228 223 230 234 236 239 241 244 246 246 244 244 244 243 245 246 250 258 267 273 279 284 288 292
227 236 228 221 221 225 233 237 236 236 233 231 231 229 231 235 233 233 236 235 237 235 241 246 248 253 259 264 271 277 282 286 288
225 233 231 228 228 228 225 228 234 239 237 238 239 238 237 239 238 238 241 240 238 240 243 247 252 257 264 268 273 278 282 285 289
228 232 237 237 237 238 235 233 230 233 238 241 243 242 241 240 241 243 247 246 244 246 251 256 261 264 267 273 277 278 280 286 291
Height
10941 10941 10940 10942 10948 10949 10954 10958 10967 10972 10976 10980 10984 10987 10989 10992 10995 10998 11002 11004 11006 11009 11010 11011 11012 11013 11013 11013 11013 11013 11012 11010 11008
10933 10934 10935 10939 10943 10944 10949 10953 10960 10968 10972 10975 10979 10983 10986 10989 10992 10996 10999 11002 11004 11006 11008 11009 11010 11011 11011 11011 11012 11011 11010 11008 11005
10921 10929 10930 10933 10936 10939 10943 10949 10956 10962 10965 10968 10974 10977 10982 10986 10990 10993 10996 10999 11002 11003 11005 11007 11008 11009 11009 11009 11008 11007 11006 11004 11003
10909 10919 10923 10926 10931 10935 10940 10944 10950 10956 10959 10963 10967 10972 10978 10983 10986 10990 10994 10997 10999 11001 11002 11004 11006 11006 11006 11006 11004 11004 11002 11000 10999
10904 10909 10918 10920 10925 10930 10933 10937 10942 10947 10954 10958 10962 10967 10972 10976 10981 10986 10990 10993 10996 10998 10999 10999 11001 11002 11001 11001 11001 10999 10997 10995 10993
10891 10899 10908 10914 10918 10923 10926 10930 10936 10941 10948 10954 10958 10962 10966 10971 10977 10982 10985 10988 10991 10993 10994 10995 10995 10995 10995 10995 10994 10994 10992 10989 10987
10875 10886 10896 10904 10909 10915 10920 10925 10931 10938 10944 10950 10954 10957 10961 10966 10972 10975 10977 10982 10984 10987 10989 10989 10990 10989 10989 10988 10988 10987 10986 10983 10981
10863 10871 10885 10896 10901 10908 10913 10919 10924 10931 10938 10942 10947 10951 10955 10960 10965 10968 10971 10975 10979 10981 10983 10984 10984 10984 10984 10984 10983 10982 10980 10977 10975
10853 10860 10875 10886 10893 10899 10905 10911 10916 10922 10929 10935 10940 10943 10947 10954 10958 10962 10965 10968 10971 10974 10976 10976 10977 10977 10977 10977 10977 10975 10973 10970 10966
10844 10849 10858 10871 10881 10891 10900 10905 10911 10918 10923 10928 10932 10935 10941 10947 10951 10954 10957 10961 10963 10965 10968 10968 10970 10971 10970 10970 10970 10968 10965 10962 10958
10832 10841 10853 10864 10877 10886 10894 10899 10906 10912 10917 10921 10924 10928 10933 10938 10943 10947 10951 10954 10955 10957 10958 10961 10963 10963 10962 10963 10962 10959 10958 10954 10950
10832 10838 10848 10859 10869 10878 10885 10892 10898 10904 10910 10914 10917 10920 10924 10930 10935 10939 10943 10945 10947 10949 10950 10952 10954 10953 10953 10953 10953 10951 10949 10948 10944
10824 10833 10842 10848 10855 10863 10870 10878 10885 10891 10895 10901 10905 10907 10915 10923 10927 10931 10934 10935 10939 10941 10942 10944 10945 10944 10943 10942 10942 10941 10942 10942 10938
10821 10828 10831 10835 10841 10850 10859 10867 10875 10880 10887 10889 10892 10901 10910 10915 10918 10920 10922 10926 10929 10930 10932 10934 10934 10933 10933 10931 10932 10933 10933 10932 10930
10818 10821 10824 10829 10834 10841 10847 10854 10864 10869 10874 10878 10884 10892 10898 10901 10903 10907 10911 10915 10917 10919 10922 10923 10923 10923 10922 10922 10924 10923 10924 10922 10921
10807 10812 10817 10822 10828 10834 10840 10846 10851 10856 10859 10865 10873 10878 10883 10886 10890 10895 10899 10902 10905 10907 10910 10911 10913 10914 10913 10914 10915 10914 10914 10912 10911
10788 10798 10807 10814 10822 10826 10832 10839 10843 10843 10847 10852 10858 10864 10868 10873 10878 10881 10886 10889 10892 10896 10898 10900 10902 10903 10904 10906 10905 10904 10903 10902 10901
10777 10775 10791 10804 10814 10820 10825 10829 10832 10834 10840 10844 10848 10852 10857 10860 10865 10869 10873 10878 10881 10884 10887 10889 10890 10893 10895 10896 10895 10895 10894 10892 10890
10760 10759 10775 10787 10797 10805 10812 10816 10818 10823 10830 10835 10839 10843 10847 10850 10854 10858 10863 10869 10872 10873 10874 10877 10880 10881 10884 10885 10884 10884 10883 10881 10880
10746 10754 10762 10773 10781 10788 10797 10804 10809 10812 10817 10822 10825 10830 10835 10840 10844 10851 10853 10856 10859 10862 10863 10866 10868 10870 10871 10872 10872 10871 10872 10871 10867